Tracking 25723 objects as of 27-Jun-2022
HD Live streaming from Space Station
objects crossing your sky now

STARLINK-1545

Track STARLINK-1545 now!
10-day predictions
STARLINK-1545 is classified as:


NORAD ID: 46156
Int'l Code: 2020-057AR
Perigee: 553.3 km
Apogee: 555.4 km
Inclination: 53.1 °
Period: 95.6 minutes
Semi major axis: 6925 km
RCS: Unknown
Launch date: August 18, 2020
Source: United States (US)
Launch site: AIR FORCE EASTERN TEST RANGE (AFETR)
aabbcc
Your satellite tracking list
Your tracking list is empty




NASA's NSSDC Master Catalog

Two Line Element Set (TLE):
1 46156U 20057AR  22177.45638204  .00003241  00000-0  23639-3 0  9993
2 46156  53.0555 247.0255 0001521  68.2790 291.8361 15.06400185103782
Source of the keplerian elements: AFSPC